Regional Weather Roundup
Issued by NWS

Home | Current Version | Previous Version | Graphics & Text | Print | Product List | Glossary On
Versions: 1 2 3 4 5 6 7 8 9 10 11 12 13 14 15 16 17 18 19 20 21 22 23 24 25 26 27 28 29 30 31 32 33 34 35 36 37 38 39 40 41 42 43 44 45 46 47 48 49 50
000
ASUS43 KLMK 071610
RWRKY
KENTUCKY REGIONAL WEATHER ROUNDUP
NATIONAL WEATHER SERVICE LOUISVILLE KY
1200 PM EDT TUE JUL 07 2015

NOTE "FAIR" INDICATES FEW OR NO CLOUDS BELOW 12,000 FEET
WITH NO SIGNIFICANT WEATHER AND/OR OBSTRUCTIONS TO VISIBILITY.

KYZ001>023-026-027-061>063-070>075-071700-
WESTERN AND SOUTH CENTRAL KENTUCKY

CITY           SKY/WX    TMP DP  RH WIND       PRES   REMARKS
PADUCAH        CLOUDY    82  73  74 SW15G22   29.98S
HENDERSON      CLOUDY    77  73  88 W16G30    29.98R
OWENSBORO      PTSUNNY   80  76  87 SW12      29.99R
HOPKINSVILLE   PTSUNNY   84  75  75 SW17      30.02F HX  91
BOWLING GREEN  CLOUDY    83  72  69 SW15      30.04F
GLASGOW        CLOUDY    79  72  78 SW10      30.05S
$$

KYZ024-025-028>034-038-045-046-053-071700-
NORTH CENTRAL KENTUCKY

CITY           SKY/WX    TMP DP  RH WIND       PRES   REMARKS
LOUISVILLE/SDF RAIN      75  72  90 SW12      30.00R FOG
LOUISVILLE/LOU LGT RAIN  76  72  87 SW10      30.00S
FORT KNOX      LGT RAIN  73  72  94 S7        30.01S
$$

KYZ035>037-039>044-047>052-055>060-089>105-071700-
NORTHEAST KENTUCKY

CITY           SKY/WX    TMP DP  RH WIND       PRES   REMARKS
LEXINGTON      PTSUNNY   79  69  71 SW21G29   30.03F
COVINGTON      CLOUDY    78  72  81 SW10G20   29.99F
FRANKFORT      CLOUDY    78  69  73 SW20G26   30.00F
$$

KYZ054-064>069-076>088-106>120-071700-
SOUTHEAST KENTUCKY

CITY           SKY/WX    TMP DP  RH WIND       PRES   REMARKS
JACKSON        MOSUNNY   80  70  71 VRB3      30.11F
LONDON         PTSUNNY   82  67  60 SW10G17   30.11F
SOMERSET       PTSUNNY   81  70  69 SW10G17   30.09F
MIDDLESBORO    PTSUNNY   81  71  71 S9        30.14F
MONTICELLO     MOSUNNY   83  74  74 SW8       30.12F
$$



USA.gov is the U.S. government's official web portal to all federal, state and local government web resources and services.